This is the latest recevied weather packets stored in our database for station/object K0QED. If no packets are shown the sender has not sent any weather packets the latest 10 day(s).
| Time | Temp. | Humidity | Pressure | Rain* | Wind** | Luminosity | Snow |
|---|---|---|---|---|---|---|---|
| 1777823839 | 14.44° C | 27% | 1022 hPa | 0 mm | - | 362 W/m² | - |
| 1777823537 | 14.44° C | 29% | 1022.2 hPa | 0 mm | - | 257 W/m² | - |
| 1777823233 | 14.44° C | 29% | 1021.9 hPa | 0 mm | - | 228 W/m² | - |
| 1777822931 | 14.44° C | 28% | 1021.9 hPa | 0 mm | - | 215 W/m² | - |
| 1777822629 | 14.44° C | 30% | 1021.9 hPa | 0 mm | - | 208 W/m² | - |
| 1777822326 | 14.44° C | 31% | 1021.9 hPa | 0 mm | - | 205 W/m² | - |
| 1777822024 | 15° C | 30% | 1021.7 hPa | 0 mm | - | 198 W/m² | - |
| 1777821722 | 14.44° C | 32% | 1022 hPa | 0 mm | - | 191 W/m² | - |
| 1777821419 | 13.89° C | 31% | 1022.1 hPa | 0 mm | - | 185 W/m² | - |
| 1777821115 | 13.89° C | 31% | 1022 hPa | 0 mm | - | 182 W/m² | - |
| 1777820813 | 13.33° C | 32% | 1021.7 hPa | 0 mm | - | 187 W/m² | - |
| 1777820509 | 13.33° C | 32% | 1022.2 hPa | 0 mm | - | 162 W/m² | - |
| 1777820206 | 13.33° C | 34% | 1022 hPa | 0 mm | - | 162 W/m² | - |
| 1777819903 | 12.78° C | 34% | 1022 hPa | 0 mm | - | 153 W/m² | - |
| 1777819600 | 12.78° C | 34% | 1022 hPa | 0 mm | - | 144 W/m² | - |
| 1777819298 | 12.78° C | 35% | 1022.1 hPa | 0 mm | - | 140 W/m² | - |
| 1777818994 | 12.22° C | 35% | 1022.2 hPa | 0 mm | - | 140 W/m² | - |
| 1777818692 | 12.22° C | 36% | 1022.2 hPa | 0 mm | - | 136 W/m² | - |
| 1777818388 | 11.67° C | 37% | 1022.2 hPa | 0 mm | - | 133 W/m² | - |
| 1777818085 | 11.67° C | 37% | 1022.4 hPa | 0 mm | - | 118 W/m² | - |
| 1777817782 | 11.11° C | 37% | 1022.4 hPa | 0 mm | - | 111 W/m² | - |
| 1777817480 | 11.11° C | 37% | 1022.4 hPa | 0 mm | - | 103 W/m² | - |
| 1777817175 | 10.56° C | 38% | 1022.2 hPa | 0 mm | - | 98 W/m² | - |
| 1777816873 | 10.56° C | 38% | 1022.2 hPa | 0 mm | - | 93 W/m² | - |
| 1777816570 | 10.56° C | 39% | 1022.5 hPa | 0 mm | - | 87 W/m² | - |
* Rain latest hour (hover to see other rain measurements)
** Current wind speed in m/s (hover to see current wind gust speed)